Regional Weather Roundup
Issued by NWS

Home | Current Version | Previous Version | Graphics & Text | Print | Product List | Glossary On
Versions: 1 2 3 4 5 6 7 8 9 10 11 12 13 14 15 16 17 18 19 20 21 22 23 24 25 26 27 28 29 30 31 32 33 34 35 36 37 38 39 40 41 42 43 44 45 46 47 48 49 50
000
ASUS43 KLSX 021259
RWRMO

WEATHER SUMMARY FOR MISSOURI
NATIONAL WEATHER SERVICE SPRINGFIELD MO
800 AM CDT THU OCT 02 2014

NOTE: "FAIR" INDICATES FEW OR NO CLOUDS BELOW 12,000 FEET WITH NO
       SIGNIFICANT WEATHER AND/OR OBSTRUCTIONS TO VISIBILITY.
       CURRENT SKY AND/OR WEATHER CONDITIONS ARE NOT AVAILABLE FOR
       CHILLICOTHE AND FARMINGTON.

MOZ001>031-035>038-043-044-053-054-021400-
...NORTHERN AND WESTERN MISSOURI...

CITY           SKY/WX    TMP DP  RH WIND       PRES   REMARKS
KANSAS CTY INT CLOUDY    67  67 100 S8        29.75R
KANSAS C DTWN  CLOUDY    69  64  84 S6        29.75R
LEE`S SUMMIT   LGT RAIN  67  64  90 S10G18    29.77F
ST JOSEPH      CLOUDY    66  64  93 E3        29.76R
CHILLICOTHE      N/A     65  63  93 SE5       29.80R
KIRKSVILLE     CLOUDY    64  62  93 S10       29.83R

$$
MOZ066>068-077>081-088>096-101>105-021400-
...SOUTHWEST MISSOURI...

CITY           SKY/WX    TMP DP  RH WIND       PRES   REMARKS
SPRINGFIELD    HVY RAIN  66  63  90 SW5       29.88R FOG
JOPLIN         LGT RAIN  67  66  97 SE5       29.82R

$$
MOZ032>034-039>042-045>050-055>058-069>072-021400-
...CENTRAL MISSOURI...

CITY           SKY/WX    TMP DP  RH WIND       PRES   REMARKS
COLUMBIA       TSTM      65  64  97 SE9       29.85F FOG
ROLLA          CLOUDY    67  64  90 E6        29.86R
SEDALIA        RAIN      66  63  90 S9        29.83R FOG
WHITEMAN AFB   LGT RAIN  64  64 100 S8        29.79R
OSAGE BEACH    CLOUDY    66  63  88 E6        29.85R

$$
MOZ051-052-059>065-021400-
...EAST CENTRAL MISSOURI...

CITY           SKY/WX    TMP DP  RH WIND       PRES   REMARKS
ST LOUIS INTL  LGT RAIN  69  65  86 SE8       29.90F
SPIRIT OF STL  LGT RAIN  67  64  90 CALM      29.87F
ST CHARLES     CLOUDY    66  65  96 SE5       29.87F FOG

$$
MOZ072>076-082>087-097>100-106>115-021400-
...SOUTH CENTRAL AND SOUTHEAST MISSOURI...

CITY           SKY/WX    TMP DP  RH WIND       PRES   REMARKS
CAPE GIRARDEAU SUNNY     70  63  78 SE9       29.92S
FARMINGTON     MOSUNNY   70  64  83 S8        29.93R
POPLAR BLUFF   SUNNY     70  64  81 SE3       29.90R
WEST PLAINS    PTSUNNY   70  67  90 S8        29.92R

$$


USA.gov is the U.S. government's official web portal to all federal, state and local government web resources and services.